User: anonymous   Login
Location: Unspecified
(0.0000°N, 0.0000°E)
Time: 12:42:10
(UTC+00:00)
Language:

NORSAT 1 - Orbit

View from above orbital plane
View from above orbital plane
View from above satellite
View from above satellite

Ground track
Ground track

The orbit data is extracted from the following two-line orbital elements,

1 42826U 17042B   18200.61536972 +.00000254 +00000-0 +31232-4 0  9992
2 42826 097.5932 101.6356 0016710 089.0331 271.2802 14.90739749055162
Epoch (UTC): 19 July 2018 14:46:07
Eccentricity: 0.0016710
inclination: 97.5932°
perigee height: 584 km
apogee height: 607 km
right ascension of ascending node: 101.6356°
argument of perigee: 89.0331°
revolutions per day: 14.90739749
mean anomaly at epoch: 271.2802°
orbit number at epoch: 5516

The dashed part of the orbit path shows where the satellite is in the earth's shadow,  

DLR